Location: Aiyekoto
(8.4333°N, 4.3667°E)
Time: 01:03:21
(UTC+00:00)

Cosmos 1844 Rocket - Visible Passes

Search period start: 14 June 2021 00:00
Search period end: 24 June 2021 00:00
Orbit: 823 x 845 km, 71.0° (Epoch: 13 June)

Date Brightness Start Highest point End Pass type
(mag) Time Alt. Az. Time Alt. Az. Time Alt. Az.
20 Jun 5.5 21:22:26 10° N 21:22:30 10° N 21:22:30 10° N visible
21 Jun 5.2 21:05:18 10° N 21:05:54 13° N 21:05:54 13° N visible
22 Jun 4.9 20:48:11 10° N 20:49:21 16° N 20:49:21 16° N visible
23 Jun 4.6 20:31:06 10° N 20:32:50 19° NNE 20:32:50 19° NNE visible
